Starlink 30380

operational
NORAD ID: 57780 Int'l Des: 2023-134 Owner: SPXS Country: US Constellation: starlink
LEOCIRCULAR

About Starlink 30380

Description loading...

Live Position

Loading 3D Globe...

Upcoming Passes

Altitude History

Altitude vs Time

uPlot chart will show altitude changes over time

Two-Line Element Set

1 57780U 23134K 25354.44658175 .00000649 00000-0 63134-4 0 9999
2 57780 43.0044 267.8625 0001107 265.4431 94.6285 15.02536970127556
Epoch: Dec 20, 2025 • Age: 8 hours

Current Status

Altitude 564.8 km
Velocity 7.58 km/s
Sub-Earth Point -25.17°S, 131.44°W
Launch Date Sep 4, 2023
Age 2.2 years
Type internet

Technical Details

Classification Payload
Mass 730.00 kg
Dry Mass 700.00 kg
Total Mass 730.00 kg
Length 0.30 m
Diameter 4.10 m
Span 29.00 m
Shape Box + pan
Manufacturer SPXS
Bus Type Starlink V2M
Phase Status In Orbit
Owner/State SPXS/US

Large Constellations

Loading constellations...